Presure
215 203 205 209 210 205 207 223 233 243 211 207 211 209 201 192 191 185 191 218 201 205 214 223 226 213 222 85 88 93 235 90 113 206 80 151 208 178 184 119 126 168 92 94
211 206 206 203 206 213 220 236 243 238 212 210 207 208 209 204 200 211 192 186 144 78 212 229 224 197 223 221 205 120 119 115 222 256 77 220 209 200 183 90 119 98 100 92
209 204 203 209 215 219 234 245 236 234 214 212 208 208 204 208 203 211 207 213 215 206 222 240 230 236 221 241 224 195 212 230 234 240 251 163 241 226 179 164 94 98 121 133
208 213 214 217 224 248 246 239 236 228 223 212 211 216 197 196 202 203 206 209 215 219 232 229 234 228 232 220 215 107 125 218 224 236 212 233 110 241 101 103 191 181 176 173
217 218 228 253 249 244 236 237 233 231 230 230 221 227 187 198 203 208 219 224 223 226 240 232 237 242 233 229 240 238 232 221 215 214 287 241 239 251 93 222 210 190 129 96
261 256 252 248 240 238 233 229 228 230 237 244 234 242 194 226 217 215 220 230 228 227 225 230 239 240 232 206 157 235 235 228 179 216 280 260 223 236 132 226 219 201 156 187
257 247 241 237 190 236 227 203 230 234 166 246 247 251 114 180 179 228 241 241 252 256 251 244 244 239 236 224 158 236 148 118 228 245 275 268 172 177 230 235 147 218 196 187
242 236 236 237 240 241 240 239 243 258 255 256 263 265 98 97 138 150 160 73 236 243 247 249 246 240 235 215 215 225 235 230 90 266 271 263 244 224 225 226 223 216 194 195
236 239 246 247 244 214 211 215 217 212 228 217 239 76 98 156 78 114 222 140 231 232 232 235 242 247 237 227 224 223 231 159 259 260 260 257 225 223 218 215 96 133 196 196
220 210 210 213 215 220 206 208 230 239 286 340 340 332 327 339 215 93 87 158 215 253 244 245 241 248 252 230 83 226 225 220 258 251 255 253 243 231 216 224 228 220 208 196
210 214 215 217 212 225 230 239 252 316 320 344 348 338 333 79 152 346 357 291 294 305 302 299 271 249 255 232 232 226 224 223 245 249 249 251 241 234 215 223 229 219 207 194
218 222 196 215 229 294 292 287 257 80 308 139 372 348 323 324 324 288 327 355 271 277 301 297 270 259 246 227 223 229 228 244 239 238 240 249 243 235 222 219 231 223 207 198
218 213 218 280 278 286 272 237 262 257 131 395 381 383 325 330 337 337 363 403 234 267 265 227 271 250 247 233 226 216 233 249 237 237 242 249 256 237 224 216 231 225 209 197
217 249 268 258 233 254 230 256 244 247 267 290 313 196 355 356 358 366 379 394 338 258 296 282 243 254 251 235 222 215 206 247 237 238 239 242 252 248 224 215 228 225 214 203
266 236 250 243 252 238 250 245 230 238 261 215 285 323 368 357 369 380 411 392 413 260 295 282 187 251 221 228 206 198 210 237 231 236 239 239 251 261 226 215 227 225 214 205
257 176 157 165 160 234 234 228 241 227 262 266 262 280 283 294 308 358 365 368 413 259 287 272 257 248 217 224 224 226 212 205 229 233 236 238 254 263 224 217 227 224 212 202
168 227 234 237 221 236 145 239 226 228 219 263 253 248 263 273 280 292 304 341 384 243 267 267 261 244 231 222 209 224 167 225 226 253 232 243 257 261 221 216 226 220 211 207
205 220 240 231 232 230 172 230 219 235 238 239 242 252 258 250 272 275 287 304 336 245 243 232 234 231 224 183 221 226 230 215 235 244 241 252 261 225 218 229 222 215 208 197
245 244 218 175 230 237 219 236 229 226 227 225 244 233 241 242 247 259 257 280 304 268 236 232 223 221 228 228 215 222 214 152 241 238 251 262 257 215 227 222 215 208 196 189
180 219 148 161 225 208 218 240 227 218 216 220 227 238 249 220 241 238 246 244 267 284 298 249 230 216 226 227 227 231 233 149 240 262 264 234 207 226 220 214 206 199 188 183
179 197 229 196 210 218 162 224 220 222 221 220 228 230 230 240 242 249 249 243 257 273 260 269 238 289 287 262 281 273 265 265 261 251 211 210 225 216 210 205 198 185 180 178
172 201 172 197 221 199 215 164 216 221 245 211 215 223 235 228 229 236 231 233 240 251 253 254 260 264 265 263 255 252 247 242 217 215 223 219 214 209 201 184 184 183 180 181
167 168 179 154 216 196 231 231 221 214 224 222 221 211 221 230 224 223 225 236 234 233 230 233 238 171 235 232 223 211 211 209 227 220 214 213 212 186 182 180 179 182 186 188
169 165 196 171 216 229 187 176 226 229 222 222 233 223 220 222 223 227 225 224 226 230 220 218 216 210 211 220 218 224 219 215 214 213 211 206 180 182 183 182 188 188 189 192
186 177 180 229 232 228 234 237 237 221 223 234 225 233 236 228 223 228 225 225 236 210 202 200 193 208 212 214 216 216 217 217 218 178 178 182 186 187 187 188 191 193 147 199
197 230 188 189 247 247 226 231 222 240 211 220 226 239 224 229 234 227 221 205 200 190 200 211 224 222 223 222 219 192 179 179 185 188 184 186 188 191 192 193 197 139 208 222
Wind_Speed
73 68 71 72 72 69 71 72 71 71 81 77 73 70 77 76 68 66 71 63 67 66 67 68 67 69 66 39 42 45 64 45 38 69 35 49 69 60 57 56 58 53 43 47
68 69 69 68 71 74 74 77 73 72 82 79 76 66 74 79 69 73 81 74 51 13 69 66 70 60 66 68 73 53 48 53 58 62 35 65 67 66 61 41 50 49 50 48
68 67 67 73 75 75 80 75 73 73 81 79 78 70 75 74 75 75 74 73 75 75 68 64 69 67 63 62 70 69 68 66 62 59 62 51 67 72 62 60 50 52 56 55
63 69 73 73 78 81 77 73 72 74 81 81 80 72 61 64 74 74 75 77 78 76 72 70 68 68 68 62 60 54 59 68 65 60 57 62 51 65 51 51 66 56 55 59
65 68 76 75 77 73 71 71 72 75 80 84 83 85 56 76 81 88 90 86 83 81 80 73 71 67 69 66 60 63 65 68 67 63 58 63 64 62 37 71 73 63 56 55
64 66 67 69 69 68 68 68 72 76 80 79 80 85 41 76 80 87 93 93 86 83 79 77 76 70 69 62 53 62 61 62 56 65 57 64 63 61 39 69 70 70 61 63
57 57 60 65 51 67 64 59 69 73 50 78 84 87 39 56 54 83 87 89 90 85 80 79 75 73 69 67 54 62 51 36 61 57 54 59 51 48 63 66 57 69 67 65
48 52 58 61 60 63 65 71 75 80 80 81 84 80 20 9 14 12 28 18 83 82 75 74 76 74 71 68 66 64 58 58 48 50 51 58 65 64 65 67 66 66 68 69
42 50 52 55 53 44 47 56 59 58 69 65 75 16 28 37 15 6 71 18 83 89 83 75 75 71 72 70 67 65 58 49 52 50 51 57 59 66 65 64 55 55 68 69
32 36 39 36 43 46 47 57 68 78 71 57 56 64 65 67 41 29 21 50 62 91 95 86 78 74 68 70 37 63 59 59 51 50 49 55 63 67 66 66 66 67 67 69
33 33 36 40 43 48 58 66 18 42 50 57 62 57 55 10 28 64 62 80 73 72 76 80 77 73 65 68 63 64 58 55 50 49 48 53 62 65 67 65 65 65 67 69
31 35 33 39 49 22 24 24 30 6 48 17 57 34 55 50 55 49 47 58 74 69 70 74 71 68 65 67 64 60 56 49 48 48 48 50 61 64 65 64 64 64 66 68
29 28 37 29 31 19 13 20 28 25 12 40 41 31 44 50 45 51 53 44 64 69 60 55 67 66 62 62 59 60 50 50 49 48 46 49 52 65 64 62 63 64 66 67
28 32 24 14 23 14 16 20 23 31 35 50 27 19 31 38 42 42 39 38 40 67 65 63 57 60 58 55 55 52 43 48 46 45 47 47 51 61 63 62 63 63 64 65
24 16 17 15 9 8 16 13 14 26 32 25 50 51 20 17 7 14 25 27 37 63 62 58 43 54 55 52 53 40 40 44 43 43 45 48 50 54 62 61 61 61 61 62
16 18 21 18 19 14 17 18 22 18 37 42 48 48 43 58 57 9 1 19 35 57 53 51 52 52 48 49 48 40 40 37 41 42 45 48 49 52 60 59 59 57 59 61
19 15 7 7 6 13 6 21 19 20 12 42 40 34 42 40 43 43 38 12 24 48 45 48 50 48 46 48 39 39 32 40 40 43 48 48 47 51 56 54 55 55 57 59
6 14 6 10 11 15 6 18 14 31 37 38 38 37 36 32 44 42 37 30 22 47 43 41 42 43 45 33 41 42 40 36 41 41 45 44 43 51 50 53 52 54 55 58
10 12 3 13 13 10 15 15 18 25 28 25 31 31 33 32 32 35 34 34 26 44 41 41 41 42 42 46 37 37 34 40 38 41 42 37 42 45 48 49 50 52 55 56
6 13 12 9 8 7 18 16 21 18 19 22 29 32 24 22 26 23 24 22 24 18 17 38 41 35 43 38 37 40 39 37 37 34 30 38 40 43 45 48 49 52 53 56
13 3 6 8 5 13 8 14 17 15 15 21 23 24 24 26 25 23 20 20 15 16 16 17 23 24 27 30 25 24 24 24 24 26 35 37 39 43 45 47 48 50 52 57
15 4 6 6 8 6 9 8 12 16 12 13 15 18 20 19 21 20 17 18 19 18 16 14 13 15 15 15 14 15 17 22 30 33 34 37 41 43 44 44 49 53 56 62
12 10 7 9 6 2 8 6 13 10 7 8 7 7 10 12 12 9 14 14 13 13 12 10 5 22 9 13 19 24 27 28 29 32 36 39 42 39 41 45 50 56 62 66
13 11 9 12 7 8 5 9 6 5 11 8 3 6 6 5 7 8 7 7 7 7 11 13 15 18 19 17 20 22 26 29 32 35 37 39 36 42 47 51 57 61 66 71
17 19 13 20 21 12 7 9 2 8 8 6 9 11 13 7 4 3 4 5 6 13 15 16 19 18 19 21 23 25 28 30 34 30 33 39 44 48 51 56 61 66 50 76
21 26 15 12 33 25 10 8 9 4 2 4 4 9 6 7 11 7 7 11 13 14 15 14 15 17 19 21 24 25 27 31 36 38 41 44 49 53 58 62 67 48 78 84
Wind_Direction
238 240 244 247 250 249 250 256 256 250 245 247 246 245 249 257 256 254 259 256 256 254 254 255 253 250 251 244 246 243 255 247 252 253 257 256 255 251 255 261 262 261 266 268
235 239 244 246 249 253 257 258 252 247 244 247 249 247 250 253 255 257 258 253 256 244 253 253 253 250 250 250 254 246 256 248 254 252 261 250 253 255 257 263 263 266 271 274
236 240 244 249 252 257 256 252 249 245 243 247 249 245 253 255 259 259 258 260 257 253 253 257 253 253 250 251 251 255 256 256 254 253 250 253 249 249 256 259 264 268 270 272
238 243 247 251 254 250 250 249 249 246 243 248 252 245 255 259 262 259 256 256 259 257 259 255 254 253 254 249 251 235 246 257 257 254 251 249 255 248 259 263 256 256 259 264
242 245 249 245 246 248 249 251 250 249 248 248 251 252 245 257 258 260 260 259 258 260 263 257 258 256 254 251 256 256 254 254 256 255 245 248 247 244 261 249 253 257 266 273
238 240 242 244 248 250 251 251 252 255 256 255 255 258 252 253 251 255 258 258 253 255 255 256 258 255 252 249 246 256 256 253 255 255 245 242 247 245 261 247 249 254 262 262
240 243 246 247 251 252 255 259 262 263 253 266 263 261 243 266 250 250 249 255 258 257 252 252 252 251 249 250 247 257 251 259 254 253 248 241 250 250 242 241 261 250 256 260
244 249 250 254 257 261 265 267 268 268 268 264 264 265 170 241 41 303 255 256 254 252 247 246 248 244 244 245 248 253 257 257 257 252 249 241 240 242 243 244 246 249 255 257
245 251 256 260 263 263 267 268 270 265 271 260 268 229 255 267 260 105 247 258 245 250 249 243 247 244 242 244 246 249 253 256 251 251 248 240 242 241 243 246 273 269 255 257
236 247 251 262 265 271 267 273 282 285 287 284 276 268 268 261 253 251 254 257 248 245 245 242 240 242 238 242 243 248 250 252 251 252 250 245 238 239 243 243 245 248 251 257
245 255 267 272 276 287 289 289 318 309 321 294 281 273 264 270 266 259 249 240 240 236 235 232 231 235 233 239 243 249 252 254 252 253 254 248 240 239 242 244 243 246 249 256
259 267 259 287 293 299 309 322 298 271 339 257 289 277 267 260 257 262 262 245 230 232 228 225 224 226 228 237 242 246 251 246 248 250 252 252 242 239 241 244 244 246 248 254
265 280 290 282 304 315 339 302 347 349 317 333 290 287 262 266 266 262 263 250 231 228 224 221 218 221 225 232 239 251 251 243 245 248 252 254 253 239 240 244 244 246 249 256
287 284 314 315 304 1 325 6 355 2 20 24 345 276 270 271 270 266 259 251 205 227 212 210 218 218 220 228 241 252 258 245 249 252 253 253 254 243 239 243 244 246 250 255
265 309 307 274 16 10 28 11 333 355 33 299 42 44 51 52 30 258 238 206 198 218 207 203 220 213 234 231 257 260 251 248 252 254 256 254 256 250 239 244 245 247 251 256
258 244 241 258 264 38 33 25 34 19 27 53 50 48 55 55 58 33 226 203 198 206 198 196 204 210 239 233 236 241 261 267 254 255 253 254 256 251 239 244 246 249 253 258
228 285 275 318 238 35 340 39 41 35 350 41 59 59 51 53 51 53 59 79 174 204 191 192 200 209 221 232 242 244 258 253 254 247 252 253 254 250 241 247 249 251 255 259
238 298 295 297 19 22 285 69 47 50 42 43 49 48 52 57 54 61 67 71 112 193 197 206 207 214 224 218 234 240 243 258 253 249 251 254 254 239 245 247 250 254 258 263
252 290 52 231 98 45 75 76 62 55 55 56 54 52 52 60 58 68 72 72 92 184 197 204 212 219 224 231 246 251 255 242 251 250 253 254 249 243 247 251 255 258 263 272
176 107 217 233 97 145 77 66 68 61 53 50 49 51 56 84 60 78 70 104 84 102 139 207 213 227 230 239 242 247 247 247 248 250 251 242 243 248 251 255 258 264 273 279
174 186 218 169 136 91 181 73 64 64 59 54 53 51 56 63 72 73 74 81 84 122 158 182 216 209 221 230 229 234 239 242 245 244 236 242 246 249 254 259 266 275 283 287
193 182 202 171 102 166 100 203 85 70 61 62 53 47 65 62 70 74 85 94 101 117 133 160 178 191 198 210 223 231 238 238 234 239 243 246 250 255 261 274 276 280 287 289
202 200 223 208 169 204 303 309 118 126 67 94 98 88 69 83 97 99 105 89 109 119 132 127 136 238 206 216 221 225 231 239 241 243 248 253 257 272 279 284 288 287 290 291
210 224 209 260 193 258 230 215 123 131 144 143 255 153 134 120 105 86 96 116 127 145 170 179 188 201 213 226 234 239 240 244 247 252 256 262 284 284 284 288 289 290 291 293
226 212 222 259 265 244 249 269 307 163 166 210 166 181 191 188 149 143 160 173 207 188 201 213 223 226 233 237 242 247 252 256 260 283 289 287 285 288 289 289 290 292 296 294
223 225 230 232 267 262 200 215 180 240 215 177 191 202 184 200 207 202 204 207 214 232 231 247 254 255 257 260 260 272 280 283 283 281 289 290 289 289 290 291 292 298 293 294